Theta_e
357 358 352 347 324 323 313 319 324 323 325 332 334 333 330 331 327 318 347 350 349 352 358 360 365 364 362 364 363 362 361 361 361 361 360 359 359 358 359 358 358 359 359 359 359 359 359 358 359
358 344 338 328 318 312 314 324 321 327 326 328 328 335 332 329 340 341 343 348 351 353 354 357 365 365 363 363 364 364 362 362 361 361 359 359 360 360 360 359 359 360 360 359 358 359 359 359 359
355 349 328 322 320 313 315 325 327 331 333 331 328 332 333 332 341 342 347 349 351 351 354 357 366 366 363 362 363 364 362 362 361 360 360 361 361 360 360 361 360 360 360 358 358 360 361 360 359
339 337 338 322 316 323 323 326 328 332 334 334 333 331 338 343 341 344 349 350 348 350 355 363 365 362 362 362 363 361 361 361 361 361 361 362 362 361 360 360 361 359 359 359 359 360 361 360 359
342 334 321 321 317 326 327 328 330 329 332 332 335 330 332 341 346 346 347 347 348 352 357 359 366 366 364 361 362 362 362 362 362 362 362 361 362 362 362 362 361 360 360 359 359 359 360 360 358
332 334 318 314 318 326 328 328 329 329 332 334 333 332 334 341 342 344 344 350 353 353 355 357 364 365 363 363 360 358 362 362 362 361 362 362 361 362 362 362 362 361 361 359 360 359 359 359 358
328 325 318 318 321 324 328 330 329 327 331 332 337 330 333 335 341 344 351 351 352 352 353 353 354 358 362 363 360 356 360 361 362 363 363 362 362 360 359 359 358 358 361 360 361 359 359 359 359
335 326 319 322 320 322 330 332 334 330 331 341 339 328 328 334 339 349 349 348 347 349 349 349 350 352 358 356 360 360 358 358 360 361 361 360 359 362 362 363 364 361 361 359 358 358 359 360 359
338 322 315 321 321 325 330 328 334 338 332 336 339 337 338 338 340 341 341 341 344 346 346 346 347 347 354 354 358 361 361 362 359 359 360 363 350 352 353 358 359 358 358 359 360 360 360 359 360
328 323 322 328 328 327 329 331 330 331 332 333 335 341 337 337 333 333 334 337 339 340 342 345 346 346 353 357 356 357 356 356 354 355 354 352 350 353 355 359 361 359 360 360 360 360 360 359 353
329 320 326 328 329 331 331 331 330 329 328 332 331 333 335 334 332 331 330 336 338 339 342 344 346 347 350 353 354 354 354 352 351 350 353 354 351 347 347 349 352 348 354 348 354 352 353 354 349
324 326 327 331 331 332 329 334 329 332 332 338 336 335 334 332 331 331 330 332 332 337 342 346 347 345 348 352 350 354 352 347 349 350 352 348 342 347 344 341 348 347 345 346 346 348 350 352 350
325 329 332 332 330 330 332 329 331 332 338 338 338 336 334 332 332 332 332 336 333 335 339 342 347 346 350 350 350 346 349 347 348 349 353 351 347 342 341 345 347 346 346 345 346 344 347 351 351
329 327 321 327 329 330 329 329 329 333 337 336 335 333 334 332 332 331 332 334 334 335 337 342 346 348 350 349 351 351 347 348 347 351 352 349 347 342 342 348 347 346 348 347 344 344 345 343 347
329 322 322 323 325 328 331 327 323 331 335 333 333 333 334 333 333 333 333 334 336 335 337 345 347 350 348 352 354 353 350 348 350 351 352 350 348 347 351 348 347 347 349 349 349 347 346 347 347
322 322 316 325 327 331 326 314 325 330 330 329 332 333 333 333 333 334 333 332 336 336 338 347 351 350 350 351 354 355 353 348 349 347 352 350 347 344 348 346 345 346 348 349 349 347 345 345 346
319 311 314 320 327 328 322 315 327 330 329 327 328 330 332 331 331 332 334 333 337 339 341 340 343 349 350 351 353 352 353 353 352 352 352 353 352 350 347 348 348 349 350 350 349 349 346 343 343
309 312 316 315 322 323 320 317 323 330 328 327 327 328 328 329 330 333 333 334 339 343 343 343 343 346 351 354 353 354 353 353 353 354 352 354 354 354 354 350 348 348 351 350 349 345 347 345 343
315 316 314 319 325 321 320 320 325 327 327 327 326 327 327 328 330 332 333 334 339 343 343 344 344 352 352 353 350 348 347 350 353 354 355 358 355 356 352 349 347 348 348 348 349 349 347 346 348
311 312 313 317 322 321 321 318 323 328 325 327 329 328 329 329 328 331 332 333 336 342 344 345 348 353 353 354 352 352 352 355 356 357 358 356 356 353 350 348 348 349 347 349 347 347 346 345 348
306 308 314 314 320 321 319 315 317 326 328 327 329 331 331 330 328 331 332 333 335 341 344 347 351 356 355 356 356 356 356 354 352 352 352 354 355 354 352 352 350 350 349 346 348 349 348 341 344
301 316 319 317 314 308 319 305 314 318 319 323 324 329 330 330 332 333 333 333 337 341 348 351 354 359 358 357 356 353 347 345 349 349 352 354 356 353 350 351 349 348 350 350 349 351 347 345 341
311 315 313 316 312 309 311 309 311 317 315 319 320 326 331 332 333 333 335 336 337 343 345 352 354 359 357 359 354 354 351 352 353 350 347 346 349 349 350 349 348 345 350 351 351 348 346 345 341
314 312 311 312 308 301 306 308 309 312 315 321 323 327 332 332 334 334 337 337 336 344 347 352 355 355 357 359 359 356 353 348 346 345 341 341 346 345 349 350 348 349 350 350 348 349 346 345 344
308 305 296 298 299 299 308 306 309 318 321 323 324 327 329 333 333 334 334 335 337 338 344 347 354 356 358 358 359 358 356 350 347 342 345 343 341 345 346 349 350 350 351 350 348 347 346 345 343
305 302 298 293 297 304 310 306 311 321 323 327 325 327 330 334 333 335 336 336 338 339 341 346 353 355 357 357 358 357 357 351 350 350 345 342 343 348 348 348 349 350 350 349 347 346 346 344 342
302 300 307 302 300 303 308 313 317 321 321 324 323 327 327 330 333 335 337 338 338 340 340 354 355 356 356 357 357 356 353 352 350 345 344 345 349 350 348 348 347 343 343 346 346 344 342 342 340
304 307 298 300 296 295 303 306 307 313 318 322 321 324 326 328 332 335 336 339 340 341 350 355 356 355 355 357 356 354 352 353 351 348 350 348 348 347 346 345 346 345 342 345 343 341 341 338 338
301 299 302 300 300 297 299 303 316 315 319 319 319 324 326 328 330 332 334 337 338 341 352 354 355 355 355 356 353 353 352 351 351 350 349 347 346 346 344 344 342 341 342 342 340 337 337 337 335
307 303 301 296 296 300 303 304 319 318 322 324 324 325 329 331 333 333 339 341 340 342 350 352 354 355 355 355 354 353 351 351 350 347 346 348 344 344 343 343 342 339 339 339 336 334 335 333 332
Wind_Speed
12 8 3 3 4 2 1 8 12 6 7 4 8 14 15 6 4 5 16 16 19 14 12 13 16 16 16 15 14 14 13 13 11 11 11 10 10 10 10 10 10 10 10 9 8 7 7 6 8
11 6 6 4 2 1 4 6 12 9 20 10 14 18 18 16 14 17 18 22 18 16 11 11 16 15 16 15 14 14 14 13 12 11 10 10 10 9 10 10 11 11 10 9 8 8 7 6 7
6 8 5 3 6 3 2 4 15 21 20 16 7 3 8 12 16 17 21 23 20 15 13 12 16 15 16 15 14 13 13 13 12 11 10 10 8 10 9 10 10 9 10 9 9 9 9 7 7
3 4 4 2 5 6 2 8 13 19 21 15 19 14 9 19 19 15 26 25 20 17 15 16 17 17 16 15 14 14 13 12 11 10 9 9 9 10 10 10 10 10 8 7 7 7 8 7 6
7 3 4 2 2 5 2 5 5 3 13 17 18 16 13 15 16 24 25 22 21 17 15 14 16 15 15 13 12 12 11 11 10 9 10 9 10 11 10 10 11 9 9 8 8 8 7 7 6
3 2 2 3 0 5 4 5 3 3 20 19 22 15 5 10 19 23 20 22 20 19 15 13 16 15 14 14 12 11 9 9 11 9 10 11 9 11 11 11 12 10 11 9 8 8 8 7 6
1 4 3 4 3 7 4 3 3 5 19 13 18 12 3 8 18 16 24 22 19 17 14 12 9 11 14 12 11 10 9 7 9 9 11 10 10 10 10 10 10 10 10 9 9 8 7 7 6
2 3 4 4 2 2 6 3 6 10 12 22 18 6 8 10 11 23 23 21 20 16 13 11 8 6 6 6 12 12 10 9 8 8 8 8 8 8 9 7 7 8 9 9 8 8 7 8 8
6 3 4 5 2 1 3 5 9 12 13 9 6 20 14 13 17 18 19 20 17 15 15 13 12 9 7 7 8 9 9 8 9 8 10 7 3 5 8 9 10 8 8 8 8 9 9 9 9
9 4 9 8 4 5 8 11 7 5 7 20 20 14 18 12 7 19 18 18 16 17 16 15 13 12 11 9 7 8 8 5 6 5 4 4 4 5 6 9 11 9 10 10 10 10 10 9 4
8 5 8 4 4 11 10 8 7 8 4 19 22 21 17 13 8 12 9 18 17 17 14 15 13 13 12 9 7 4 3 1 1 5 6 6 4 2 2 2 3 4 9 4 6 6 4 6 3
4 10 5 6 4 15 8 8 8 5 7 17 17 18 16 16 9 13 10 12 9 9 18 16 16 9 9 8 7 6 6 4 4 4 7 4 3 3 4 3 4 4 4 5 5 2 5 7 7
4 2 10 13 6 8 11 12 6 6 18 19 19 14 13 10 9 9 10 15 10 11 16 13 12 9 9 7 5 5 7 4 7 6 8 5 5 5 4 4 3 3 2 4 4 4 3 5 8
14 18 23 11 12 4 5 6 11 18 22 19 16 13 13 11 10 9 9 14 12 12 14 11 12 8 8 6 7 5 6 7 6 6 8 7 5 5 4 3 2 2 2 2 2 4 4 3 4
9 9 6 17 9 5 5 6 9 12 18 18 14 10 11 11 10 13 9 13 15 11 10 13 9 8 8 7 6 5 3 2 5 6 9 9 7 6 5 3 2 3 2 4 3 4 3 2 2
5 6 2 9 10 4 14 6 8 7 14 13 16 14 11 10 9 10 9 9 12 9 11 14 12 10 8 7 5 4 5 5 5 5 6 7 6 5 3 3 2 2 3 3 3 3 3 3 2
8 2 6 12 7 9 8 6 16 11 12 13 12 11 11 7 8 8 9 9 13 11 11 11 11 13 10 8 6 6 6 5 5 4 5 8 7 6 3 3 2 3 3 3 3 2 3 2 3
7 3 8 6 6 11 20 6 21 7 9 14 13 12 9 8 8 10 9 8 11 14 11 10 7 11 10 6 5 4 4 4 5 5 7 6 5 6 5 4 3 3 3 4 3 4 4 4 4
10 14 17 4 3 4 16 18 11 13 15 4 10 13 10 10 9 10 8 8 9 13 11 9 8 9 9 4 4 2 2 3 3 4 5 7 6 7 6 4 3 4 4 5 5 4 5 4 3
3 2 10 22 12 11 14 10 5 16 8 6 7 16 15 13 11 12 10 9 11 15 14 11 10 9 8 6 4 3 3 2 1 2 4 4 5 5 4 3 4 5 4 4 5 5 2 3 4
4 2 9 16 3 12 6 7 6 10 14 3 6 16 17 17 17 16 13 13 10 15 14 13 10 11 8 7 4 2 2 2 1 1 1 3 2 3 2 6 4 3 7 5 5 4 4 3 2
4 3 3 3 9 5 8 6 9 7 12 8 5 7 15 13 16 18 16 12 14 15 15 15 11 12 10 9 5 6 4 3 4 3 3 3 3 4 2 5 6 4 6 6 4 2 3 3 3
6 5 6 17 16 8 18 5 11 8 11 11 9 4 12 16 17 19 18 15 13 16 15 14 13 11 10 9 8 5 4 4 0 3 6 2 3 5 5 3 3 3 5 4 5 3 2 2 2
10 5 6 9 5 7 11 3 10 4 9 7 14 10 12 18 18 16 14 12 10 14 16 14 15 14 10 11 8 8 6 4 4 4 2 1 3 3 4 4 3 4 4 3 1 2 4 2 1
7 2 4 3 6 4 8 6 11 10 12 11 15 13 24 19 16 20 15 10 10 11 17 14 15 13 11 10 8 8 6 7 7 4 2 2 2 1 2 1 2 2 3 2 4 3 4 3 3
8 6 7 5 6 4 10 7 7 1 8 9 16 21 21 9 16 18 16 16 13 11 14 17 15 11 10 9 8 7 7 5 3 3 3 2 2 4 3 2 3 5 5 4 4 3 3 4 4
10 7 9 4 2 5 5 4 8 2 6 11 25 3 3 5 13 17 15 18 18 15 14 17 15 12 11 8 7 7 7 6 6 5 3 2 5 4 4 5 5 6 6 6 3 4 5 5 5
9 6 4 5 2 1 2 3 7 5 5 10 1 6 10 1 8 9 11 11 10 14 12 16 16 15 10 10 8 7 7 7 6 5 5 6 5 4 4 5 6 6 5 6 6 4 5 6 4
2 4 4 1 4 5 5 7 7 14 11 15 9 9 10 6 7 7 7 8 9 12 16 15 14 13 12 11 8 8 6 7 6 5 6 6 5 6 7 7 6 6 6 6 6 6 6 7 6
9 8 8 7 11 3 8 5 7 13 12 10 15 11 8 6 5 7 8 8 8 10 16 14 13 13 13 11 8 8 7 7 6 6 6 8 6 5 5 7 7 5 5 5 6 6 5 5 7
Wind_Direction
99 71 355 19 4 8 348 6 132 240 62 41 117 75 77 52 163 166 144 136 133 136 138 137 134 132 130 132 133 134 131 129 120 126 120 118 121 119 124 135 143 144 147 144 136 138 134 135 129
84 49 47 68 308 116 321 320 123 144 119 75 52 95 70 70 88 117 134 134 132 132 138 138 134 135 132 131 129 129 141 141 138 133 131 127 127 136 124 127 137 141 146 137 129 136 145 144 129
109 182 75 102 258 142 167 5 326 81 103 106 89 17 81 114 126 140 140 135 134 142 137 141 136 135 136 136 134 132 133 137 140 138 142 136 143 151 130 125 129 140 146 142 137 146 142 144 142
147 59 120 227 71 3 96 124 188 105 100 93 110 91 112 140 145 149 143 143 142 136 132 142 142 140 138 139 138 138 139 141 143 139 140 132 141 138 143 131 128 140 145 141 142 144 137 144 145
55 47 29 344 344 296 331 95 108 60 106 122 112 112 115 133 147 140 144 143 135 130 137 141 143 143 140 138 135 139 146 149 148 141 148 140 141 140 133 140 124 134 140 144 140 146 152 157 162
68 102 293 149 158 280 321 66 45 68 128 115 103 103 105 148 144 153 147 127 128 133 139 142 142 141 144 151 140 148 151 145 144 137 137 144 137 138 142 141 136 139 140 143 153 161 161 176 173
288 131 278 288 173 194 191 163 113 97 135 124 129 118 172 138 155 135 122 120 127 132 137 136 143 149 147 138 141 145 153 142 135 150 147 157 149 149 148 144 143 146 148 153 157 170 169 177 191
210 70 270 236 252 151 165 204 199 109 99 129 133 158 165 158 132 125 128 133 131 133 138 143 144 145 141 145 157 151 157 159 163 160 157 160 160 154 153 156 162 158 163 165 174 182 190 194 197
122 50 262 251 226 158 138 91 72 90 88 54 95 144 141 157 127 128 132 133 135 145 152 154 158 165 161 161 169 161 164 182 180 189 185 176 179 185 185 180 178 179 182 191 201 203 204 206 214
131 224 240 211 204 137 162 101 85 70 30 109 118 140 138 157 143 146 142 144 150 158 161 159 160 173 165 161 160 165 178 171 183 195 210 217 226 202 199 185 181 196 203 209 219 223 224 224 215
156 223 303 162 65 113 103 99 118 130 134 133 139 142 153 150 166 141 140 148 157 167 157 161 163 181 169 161 167 167 133 173 196 231 194 217 204 210 165 165 192 193 221 216 222 218 210 219 141
153 303 265 345 321 116 143 126 140 170 169 142 142 148 157 160 177 153 151 142 155 143 148 156 171 173 152 159 166 172 147 147 230 226 202 194 193 198 209 203 213 204 207 211 222 204 213 206 182
215 22 360 305 294 129 149 154 159 146 130 135 144 157 156 162 169 155 157 153 159 138 153 162 151 166 150 148 174 151 168 186 201 208 200 185 191 200 214 225 211 206 195 212 212 220 211 202 197
79 42 345 323 290 308 121 133 128 130 127 132 142 159 166 172 173 162 164 161 156 155 163 146 162 150 136 152 128 141 157 206 174 196 197 200 193 199 215 204 203 286 292 285 257 241 251 223 200
99 102 244 285 294 224 90 36 109 128 127 134 147 170 176 177 180 174 175 160 161 166 149 148 140 143 150 149 142 144 187 205 161 193 197 200 190 191 166 179 209 252 277 298 311 302 274 252 255
54 49 16 281 274 94 86 284 293 133 129 146 158 171 182 183 183 165 158 152 155 152 138 153 159 164 161 162 162 175 193 205 220 192 185 193 195 197 195 177 221 268 279 270 258 275 270 259 269
28 182 236 290 243 132 65 347 304 269 155 159 160 163 171 188 166 163 163 158 164 144 146 163 159 162 169 172 178 196 205 215 211 198 187 203 192 169 193 198 204 271 268 269 265 252 238 248 269
189 251 299 212 231 105 103 142 269 290 164 165 162 156 163 181 179 169 175 166 162 151 154 155 165 158 168 163 171 188 224 238 225 214 225 180 173 162 185 174 179 228 268 248 255 246 243 225 240
242 155 240 16 248 117 155 109 320 336 14 262 162 157 165 181 183 169 175 179 144 155 155 158 158 146 155 162 166 177 234 254 249 212 183 165 159 169 167 190 199 234 230 229 222 225 219 240 205
239 116 56 329 290 55 99 89 249 10 312 293 235 167 176 177 175 174 180 181 155 164 169 168 168 162 167 159 166 164 185 202 84 52 84 164 186 161 146 183 258 275 264 255 245 221 231 244 162
291 177 147 216 167 58 147 139 154 203 252 274 325 181 182 180 180 175 186 186 183 169 174 174 172 168 170 168 161 157 153 84 96 266 187 174 137 37 149 143 123 310 297 280 254 222 201 244 259
233 216 271 315 62 49 332 297 311 279 302 319 235 273 179 190 178 175 186 186 193 180 173 174 169 168 181 176 162 168 173 180 232 219 172 105 116 82 66 162 145 220 253 267 263 225 223 173 235
260 289 318 70 102 79 1 18 275 298 307 279 269 252 205 185 180 181 187 192 188 173 176 174 174 168 179 179 177 167 169 197 337 109 97 145 116 100 107 179 191 265 263 284 286 315 308 204 216
290 320 332 79 96 74 257 256 280 251 241 284 270 266 243 176 178 174 184 179 190 167 172 173 173 184 175 184 168 161 152 206 101 96 126 159 135 148 132 150 207 264 274 282 310 327 335 330 356
294 164 298 19 12 199 211 190 263 313 270 276 281 315 278 186 169 173 173 176 183 169 175 173 171 178 176 168 150 154 162 126 141 148 131 117 154 130 127 217 302 352 356 13 37 40 44 39 55
253 194 167 251 174 174 169 216 251 220 95 268 268 256 261 161 166 169 180 185 180 182 173 173 172 165 154 142 151 153 147 131 150 135 125 120 170 121 126 101 69 56 40 44 58 45 47 53 48
257 277 238 282 354 103 188 285 294 175 296 258 245 269 148 154 153 174 177 171 184 181 164 153 158 152 145 145 139 131 134 126 114 126 122 94 109 112 116 100 84 54 33 23 78 58 41 65 63
175 225 335 337 344 76 261 207 226 223 249 282 153 277 305 108 141 147 160 158 162 162 136 148 150 146 144 133 129 131 137 120 125 131 106 113 107 122 120 82 89 73 40 30 69 60 61 64 56
259 254 268 152 149 189 139 263 216 192 199 229 227 226 266 167 135 149 137 149 148 134 144 144 139 140 137 135 137 133 131 126 135 141 126 133 100 84 92 99 91 73 55 39 57 72 67 65 57
192 210 189 133 279 208 130 252 305 183 193 245 268 238 203 144 135 139 118 122 124 116 141 140 142 136 141 141 134 136 138 145 159 136 135 101 115 107 113 112 105 105 87 73 68 62 73 80 72